Terminal Aerodrome Forecast
Issued by NWS

Home | Current Version | Previous Version | Text Only | Print | Product List | Glossary On
Versions: 1 2 3 4 5 6 7 8 9 10 11 12 13 14 15 16 17 18 19 20 21 22 23
000
FTUS41 KPBZ 162300
TAFHLG
TAF
KHLG 162320Z 1700/1724 VRB03KT P6SM SKC
     FM171400 14008KT P6SM SKC=

USA.gov is the U.S. government's official web portal to all federal, state and local government web resources and services.